Location: Vulcan
(50.4000°N, 113.2500°W)
Time: 23:37:46
(UTC-07:00)

Tiros 1 despin weight - All Passes

Search period start: 12 November 2019 00:00
Search period end: 22 November 2019 00:00
Orbit: 594 x 642 km, 48.2° (Epoch: 12 November)

Date Brightness Start Highest point End Pass type
(mag) Time Alt. Az. Time Alt. Az. Time Alt. Az.
12 Nov - 15:12:01 10° SSE 15:13:18 11° SE 15:14:36 10° ESE daylight
12 Nov - 16:49:50 10° SW 16:53:55 36° SSE 16:58:03 10° E daylight
12 Nov - 18:30:41 10° WSW 18:35:08 65° S 18:39:39 10° E visible
12 Nov - 20:12:04 10° W 20:16:30 55° SSW 20:20:59 10° ESE visible
12 Nov - 21:53:53 10° W 21:57:31 24° SSW 22:01:11 10° SSE visible
13 Nov - 15:26:19 10° S 15:29:26 19° SE 15:32:35 10° E daylight
13 Nov - 17:06:01 10° WSW 17:10:19 49° SSE 17:14:41 10° E daylight
13 Nov - 18:47:12 10° W 18:51:39 67° S 18:56:11 10° E visible
13 Nov - 20:28:40 10° W 20:32:57 42° SSW 20:37:16 10° SE visible
13 Nov - 22:11:10 10° WSW 22:13:43 15° SW 22:16:17 10° S night (unlit)
14 Nov - 15:41:51 10° SSW 15:45:41 29° SSE 15:49:33 10° E daylight
14 Nov - 17:22:23 10° WSW 17:26:47 61° S 17:31:15 10° E visible
14 Nov - 19:03:43 10° W 19:08:10 61° S 19:12:40 10° ESE visible
14 Nov - 20:45:21 10° W 20:49:18 29° SSW 20:53:17 10° SSE visible
15 Nov - 14:18:59 10° S 14:21:18 14° SE 14:23:38 10° ESE daylight
15 Nov - 15:57:51 10° SW 16:02:01 41° SSE 16:06:15 10° E daylight
15 Nov - 17:38:52 10° W 17:43:17 67° S 17:47:48 10° E visible
15 Nov - 19:20:17 10° W 19:24:38 49° SSW 19:29:03 10° ESE visible
15 Nov - 21:02:18 10° W 21:05:34 19° SW 21:08:49 10° S visible
16 Nov - 14:34:01 10° SSW 14:37:29 23° SSE 14:40:58 10° E daylight
16 Nov - 16:14:07 10° WSW 16:18:27 54° SSE 16:22:51 10° E daylight
16 Nov - 17:55:23 10° W 17:59:49 65° S 18:04:19 10° ESE visible
16 Nov - 19:36:54 10° W 19:41:03 36° SSW 19:45:14 10° SE visible
16 Nov - 21:20:09 10° WSW 21:21:42 12° SW 21:23:16 10° SSW visible
17 Nov - 14:49:47 10° SW 14:53:46 34° SSE 14:57:48 10° E daylight
17 Nov - 16:30:33 10° WSW 16:34:56 64° S 16:39:25 10° E daylight
17 Nov - 18:11:55 10° W 18:16:19 56° SSW 18:20:46 10° ESE visible
17 Nov - 19:53:41 10° W 19:57:21 25° SSW 20:01:04 10° SSE visible
18 Nov - 13:26:24 10° S 13:29:19 17° SE 13:32:14 10° E daylight
18 Nov - 15:05:55 10° SW 15:10:09 47° SSE 15:14:27 10° E daylight
18 Nov - 16:47:03 10° W 16:51:28 67° S 16:55:56 10° E daylight
18 Nov - 18:28:30 10° W 18:32:46 43° SSW 18:37:04 10° SE visible
18 Nov - 20:10:52 10° WSW 20:13:34 16° SW 20:16:18 10° S visible
19 Nov - 13:41:50 10° SSW 13:45:32 27° SSE 13:49:17 10° E daylight
19 Nov - 15:22:16 10° WSW 15:26:37 59° SSE 15:31:01 10° E daylight
19 Nov - 17:03:35 10° W 17:07:59 62° S 17:12:26 10° ESE daylight
19 Nov - 18:45:10 10° W 18:49:07 31° SSW 18:53:07 10° SSE visible
20 Nov - 12:19:13 10° SSE 12:21:11 13° SE 12:23:09 10° ESE daylight
20 Nov - 13:57:46 10° SW 14:01:52 39° SSE 14:06:01 10° E daylight
20 Nov - 15:38:43 10° WSW 15:43:06 66° S 15:47:33 10° E daylight
20 Nov - 17:20:08 10° W 17:24:27 51° SSW 17:28:50 10° ESE visible
20 Nov - 19:02:04 10° W 19:05:24 21° SW 19:08:45 10° SSE visible
21 Nov - 12:34:02 10° SSW 12:37:21 21° SE 12:40:41 10° E daylight
21 Nov - 14:14:00 10° WSW 14:18:17 52° SSE 14:22:37 10° E daylight
21 Nov - 15:55:14 10° W 15:59:38 66° S 16:04:05 10° ESE daylight
21 Nov - 17:36:44 10° W 17:40:52 38° SSW 17:45:02 10° SE visible
21 Nov - 19:19:41 10° WSW 19:21:34 12° SW 19:23:26 10° SSW visible
